Weather History for Asheboro, NC

Change the Weather History Date:

Friday, July 5, 2013

  Actual Average Record
Temperature  
Mean Temperature 77 °F -  
Max Temperature 83 °F 86 °F 98 °F (2002)
Min Temperature 71 °F 66 °F 53 °F (1933)
Cooling Degree Days 12    
Growing Degree Days 27 (Base 50)    
Moisture  
Dew Point 72 °F    
Average Humidity 89    
Maximum Humidity 99    
Minimum Humidity 67    
Precipitation  
Precipitation 0.64 in - - ()
Sea Level Pressure  
Sea Level Pressure 30.28 in    
Wind  
Wind Speed 4 mph (South)    
Max Wind Speed 15 mph    
Max Gust Speed 20 mph    
Visibility 9 miles    
Events Rain    
Averages and records for this station are not official NWS values.
T = Trace of Precipitation, MM = Missing Value Source: NWS Daily Summary

Daily Weather History Graph

Daily Weather History Graph

Search for Another Location

Airport:

Trip Planner

Search our weather history database for the weather conditions in past years. The results will help you decide how hot, cold, wet, or windy it might be!

Date:

Astronomy

Jul. 05, 2013 Rise Set
Actual Time 6:09 AM EDT 8:38 PM EDT
Civil Twilight 5:39 AM EDT 9:08 PM EDT
Nautical Twilight 5:02 AM EDT 9:45 PM EDT
Astronomical Twilight 4:22 AM EDT 10:25 PM EDT
Moon 4:05 AM EDT (7/5) 6:34 PM EDT (7/5)
Length of Visible Light 15h 28m
Length of Day
14h 29m
Waning Crescent, 6% of the Moon is Illuminated
Jul 5
Waning Crescent
Jul 8
New
Jul 15
First Quarter
Jul 22
Full
Jul 29
Last Quarter

Hourly Weather History & Observations

Time (EDT) Temp. Heat Index Dew Point Humidity Pressure Visibility Wind Dir Wind Speed Gust Speed Precip Events Conditions
12:15 AM 73.8 °F - 69.8 °F 87% 30.29 in 10.0 mi SSE 5.8 mph - N/A   Scattered Clouds
12:35 AM 73.4 °F - 69.8 °F 88% 30.29 in 10.0 mi SSE 5.8 mph - N/A   Clear
12:55 AM 72.9 °F - 69.8 °F 90% 30.29 in 10.0 mi SSE 5.8 mph - N/A   Clear
1:15 AM 72.5 °F - 69.8 °F 91% 30.28 in 10.0 mi SSE 5.8 mph - N/A   Clear
1:35 AM 72.5 °F - 69.8 °F 91% 30.28 in 10.0 mi SSE 4.6 mph - N/A   Clear
1:55 AM 72.0 °F - 69.8 °F 93% 30.28 in 10.0 mi SSE 5.8 mph - N/A   Clear
2:15 AM 71.8 °F - 69.8 °F 93% 30.28 in 10.0 mi SSE 5.8 mph - N/A   Clear
2:35 AM 71.6 °F - 69.8 °F 94% 30.27 in 10.0 mi SSE 4.6 mph - N/A   Scattered Clouds
2:55 AM 71.4 °F - 70.0 °F 95% 30.27 in 10.0 mi SE 3.5 mph - N/A   Scattered Clouds
3:15 AM 71.6 °F - 70.3 °F 96% 30.27 in 10.0 mi Calm Calm - N/A   Clear
3:35 AM 71.6 °F - 70.7 °F 97% 30.26 in 10.0 mi SSE 4.6 mph - N/A   Scattered Clouds
3:55 AM 71.6 °F - 70.5 °F 96% 30.26 in 10.0 mi SSE 3.5 mph - N/A   Scattered Clouds
4:15 AM 72.1 °F - 71.1 °F 96% 30.26 in 10.0 mi Calm Calm - N/A   Mostly Cloudy
4:35 AM 72.1 °F - 71.1 °F 96% 30.26 in 10.0 mi Calm Calm - N/A   Mostly Cloudy
4:55 AM 72.5 °F - 71.6 °F 97% 30.27 in 10.0 mi SSE 4.6 mph - N/A   Overcast
5:15 AM 72.7 °F - 71.6 °F 96% 30.27 in 7.0 mi SSE 5.8 mph - N/A   Overcast
5:35 AM 72.7 °F - 71.8 °F 97% 30.27 in 7.0 mi SSE 4.6 mph - N/A   Overcast
5:55 AM 72.9 °F - 71.8 °F 96% 30.28 in 7.0 mi SSE 3.5 mph - N/A   Overcast
6:15 AM 72.7 °F - 71.6 °F 96% 30.28 in 7.0 mi SSE 3.5 mph - N/A   Overcast
6:35 AM 72.7 °F - 71.8 °F 97% 30.28 in 7.0 mi Calm Calm - N/A   Overcast
6:55 AM 72.9 °F - 71.8 °F 96% 30.28 in 7.0 mi SSE 3.5 mph - N/A   Overcast
7:15 AM 73.2 °F - 72.0 °F 96% 30.29 in 7.0 mi SSE 4.6 mph - N/A   Overcast
7:35 AM 73.9 °F - 72.0 °F 93% 30.29 in 10.0 mi South 5.8 mph - N/A   Overcast
7:55 AM 74.7 °F - 72.1 °F 92% 30.30 in 10.0 mi South 4.6 mph - N/A   Overcast
8:15 AM 74.7 °F - 72.3 °F 92% 30.30 in 10.0 mi South 3.5 mph - N/A   Mostly Cloudy
8:35 AM 74.7 °F - 72.5 °F 93% 30.30 in 7.0 mi SSE 4.6 mph - N/A Rain Light Rain
8:55 AM 75.2 °F - 72.3 °F 91% 30.31 in 10.0 mi South 4.6 mph - N/A   Mostly Cloudy
9:15 AM 77.0 °F - 72.3 °F 85% 30.31 in 10.0 mi SSE 8.1 mph - N/A   Mostly Cloudy
9:35 AM 77.9 °F - 74.1 °F 88% 30.31 in 7.0 mi SW 6.9 mph - N/A Rain Light Rain
9:55 AM 77.2 °F - 72.9 °F 86% 30.31 in 10.0 mi SW 5.8 mph - N/A   Scattered Clouds
10:15 AM 77.2 °F - 73.0 °F 87% 30.30 in 10.0 mi WSW 4.6 mph - N/A   Mostly Cloudy
10:35 AM 79.5 °F - 71.4 °F 76% 30.30 in 10.0 mi South 9.2 mph - N/A   Mostly Cloudy
10:55 AM 79.5 °F - 71.2 °F 76% 30.30 in 10.0 mi South 9.2 mph - N/A   Scattered Clouds
11:15 AM 81.0 °F 84.9 °F 71.2 °F 72% 30.30 in 10.0 mi South 6.9 mph - N/A   Scattered Clouds
11:35 AM 80.4 °F 84.1 °F 71.1 °F 73% 30.30 in 10.0 mi South 4.6 mph - N/A   Mostly Cloudy
11:55 AM 80.6 °F 84.6 °F 71.6 °F 74% 30.30 in 10.0 mi SSW 4.6 mph - N/A Rain Light Rain
12:15 PM 81.7 °F 85.8 °F 71.2 °F 70% 30.29 in 10.0 mi South 4.6 mph - N/A   Mostly Cloudy
12:35 PM 82.2 °F 86.6 °F 71.2 °F 69% 30.30 in 10.0 mi SSE 4.6 mph - N/A   Mostly Cloudy
1:15 PM 79.9 °F - 73.9 °F 82% 30.30 in 5.0 mi SSE 5.8 mph - 0.01 in Rain Rain
2:15 PM 79.2 °F - 74.7 °F 86% 30.27 in 10.0 mi Calm Calm - N/A   Clear
2:35 PM 79.0 °F - 73.9 °F 84% 30.28 in 10.0 mi Calm Calm - N/A   Scattered Clouds
2:55 PM 73.9 °F - 70.7 °F 90% 30.28 in 1.0 mi Calm Calm - 0.42 in Rain Heavy Rain
3:55 PM 79.2 °F - 72.7 °F 80% 30.25 in 10.0 mi Calm Calm - 0.03 in   Scattered Clouds
4:15 PM 81.5 °F 86.3 °F 72.3 °F 74% 30.24 in 10.0 mi WSW 3.5 mph - N/A   Clear
4:35 PM 81.7 °F 86.5 °F 72.3 °F 73% 30.24 in 10.0 mi Calm Calm - N/A   Clear
4:55 PM 83.5 °F 88.5 °F 71.6 °F 67% 30.23 in 10.0 mi Calm Calm - N/A   Clear
5:15 PM 83.5 °F 89.1 °F 72.3 °F 69% 30.22 in 10.0 mi WSW 3.5 mph - N/A   Clear
5:35 PM 83.3 °F 89.3 °F 72.9 °F 71% 30.22 in 10.0 mi Calm Calm - N/A   Clear
5:55 PM 82.0 °F 88.9 °F 75.2 °F 80% 30.23 in 10.0 mi SSW 3.5 mph - N/A Rain Light Rain
6:15 PM 78.1 °F - 75.2 °F 91% 30.24 in 4.0 mi South 15.0 mph 19.6 mph 0.10 in Rain Heavy Rain
6:35 PM 74.5 °F - 72.7 °F 94% 30.24 in 10.0 mi Calm Calm - 0.18 in   Mostly Cloudy
6:55 PM 74.3 °F - 72.9 °F 95% 30.25 in 10.0 mi South 3.5 mph - 0.18 in   Clear
7:35 PM 73.8 °F - 72.5 °F 96% 30.25 in 10.0 mi Calm Calm - N/A   Clear
7:55 PM 73.4 °F - 71.8 °F 95% 30.25 in 10.0 mi Calm Calm - N/A   Clear
8:15 PM 73.4 °F - 72.3 °F 96% 30.26 in 10.0 mi Calm Calm - N/A   Clear
8:35 PM 73.4 °F - 72.1 °F 96% 30.25 in 10.0 mi Calm Calm - N/A   Clear
8:55 PM 72.7 °F - 72.0 °F 98% 30.25 in 10.0 mi Calm Calm - N/A   Clear
9:15 PM 72.7 °F - 72.3 °F 99% 30.26 in 10.0 mi Calm Calm - N/A   Clear
9:35 PM 72.7 °F - 72.5 °F 99% 30.27 in 10.0 mi Calm Calm - N/A   Mostly Cloudy
9:55 PM 72.3 °F - 72.1 °F 99% 30.28 in 10.0 mi Calm Calm - N/A   Mostly Cloudy
10:15 PM 72.9 °F - 72.5 °F 99% 30.29 in 10.0 mi Calm Calm - N/A Rain Light Rain
10:35 PM 73.2 °F - 72.5 °F 98% 30.28 in 10.0 mi Calm Calm - N/A Rain Light Rain
10:55 PM 72.9 °F - 72.0 °F 97% 30.29 in 10.0 mi SE 3.5 mph - N/A   Scattered Clouds
11:15 PM 72.7 °F - 71.8 °F 97% 30.29 in 10.0 mi SSE 3.5 mph - N/A   Scattered Clouds
11:35 PM 73.2 °F - 72.3 °F 97% 30.29 in 10.0 mi SSE 3.5 mph - N/A Rain Light Rain
11:55 PM 72.7 °F - 72.0 °F 98% 30.28 in 10.0 mi Calm Calm - N/A Rain Light Rain